Погода в Паданг Сидемпуане

Индонезия     1°22′33″N   99°16′26″E
темп.,
°C
ветер,
м/с
пор.,
м/с
влажн.,
%
обл.,
%
осадки,
мм/ч
давл.,
гПа
погр.,
м
2 марта, вт
вт201:00+20св129873 1.7 101248
04:00+19всв129768 0.0 101048
07:00+19всв129857 0.0 101262
10:00+26в237245 0.1 1012801
13:00+28в236335 0.6 10111125
16:00+25всв028718 5.9 1008465
19:00+22юз119841 10.6 101036
22:00+21в119850 4.7 101123
3 марта, ср
ср301:00+20ссз119758 8.9 101227
04:00+19ссз119690 2.3 101024
07:00+19св129695 2.5 101226
10:00+26в236849 0.1 1014815
13:00+28вюв226448 0.7 10111188
16:00+26в237556 2.1 1008861
19:00+22в139778 3.0 101084
22:00+21всв129794 0.2 101263
4 марта, чт
чт401:00+20св129488 0.8 101233
04:00+19св12919 0.0 101029
07:00+19всв229215 0.0 101275
10:00+25в36700 0.0 1012888
13:00+28в35590 0.0 10101142
16:00+27в34640 0.1 1007996
19:00+22в12900 0.6 100939
22:00+20св12940 1.2 101230
5 марта, пт
пт501:00+20св129512 2.9 101129
04:00+19всв11960 0.3 101027
07:00+19всв12982 0.3 101258
10:00+26в237114 0.1 1013822
13:00+28вюв226832 0.9 10101067
16:00+25зюз118753 5.8 1008541
19:00+22з019877 8.1 100923
22:00+21всв1198100 1.6 101224
6 марта, сб
сб601:00+20с1299100 5.3 101140
04:00+20св1197100 1.8 101024
07:00+20всв1199100 6.4 101147
10:00+21в1198100 0.9 101394
13:00+25в127899 1.2 1011482
16:00+24юз0188100 2.6 1008167
19:00+21ссз0098100 8.1 101037
22:00+21сз1198100 5.8 101240